Date String (YYYY-MM-DD hh:mm:ss) UTC,Instrument flags,absolute air pressure of the measurement (hPa),sample flow rate (lpm),inlet stack bypass flow (lpm),air temperature of the measurement (°C),ambient temperature measured by the external sensor (°C),aerosol sample conditioner tube jacket temperature (°C),OPC LED temperature (°C),internal box temperature (°C),relative humidity of the measurement (%),span deviation,mass concentration of particles derived from Lorenz-Mie calculation of OPC scattering (μg/m³),mass concentration of particles derived from Lorenz-Mie calculation of OPC scattering (μg/m³),mass concentration of particles derived from Lorenz-Mie calculation of OPC scattering (μg/m³)
DateTimeUTC,F1_M11,P_M11,Q1_M11,Q2_M11,T1_M11,T2_M11,T3_M11,T4_M11,T5_M11,U1_M11,ZSPAN_M11,X2_M11,X0_M11,X1_M11
2023-07-10 09:00:00,SystemResetWarning,0830.9,4.99,000.00,029.8,026.3,000.0,038.1,031.1,28.7,-001.0,0007.17,0011.73,0006.64
2023-07-10 09:01:00,SystemResetWarning,0830.9,5.02,000.00,029.7,025.2,000.0,038.0,030.9,28.6,-002.6,0007.13,0011.57,0006.62
2023-07-10 09:02:00,SystemResetWarning,0830.9,5.00,000.00,029.5,025.2,000.0,038.0,030.6,28.8,-002.5,0007.16,0012.01,0006.61
2023-07-10 09:03:00,SystemResetWarning,0830.9,5.00,000.00,029.4,025.5,000.0,038.0,030.5,28.9,-002.7,0007.18,0011.87,0006.62
2023-07-10 09:04:00,SystemResetWarning,0830.9,4.99,000.00,029.4,026.0,000.0,038.0,030.5,29.0,-000.2,0007.18,0011.84,0006.61
2023-07-10 09:05:00,SystemResetWarning,0830.9,5.00,000.00,029.3,026.4,000.0,038.0,030.6,28.9,-001.2,0007.20,0011.89,0006.61
2023-07-10 09:06:00,SystemResetWarning,0830.9,5.00,000.00,029.3,026.7,000.0,038.0,030.7,28.9,-000.2,0007.17,0011.78,0006.58
2023-07-10 09:07:00,SystemResetWarning,0830.9,5.00,000.00,029.3,027.0,000.0,038.0,030.7,28.8,0000.0,0007.14,0011.00,0006.57
2023-07-10 09:08:00,SystemResetWarning,0830.9,5.00,000.00,029.3,027.2,000.0,038.0,030.8,28.8,0000.0,0007.11,0011.00,0006.56
2023-07-10 09:09:00,SystemResetWarning,0830.9,5.00,000.00,029.3,027.4,000.0,038.0,030.8,28.8,0000.0,0007.08,0011.54,0006.54
2023-07-10 09:10:00,SystemResetWarning,0830.9,5.00,000.00,029.3,027.6,000.0,038.0,030.8,28.6,0000.0,0007.10,0012.06,0006.53
2023-07-10 09:11:00,SystemResetWarning,0830.9,4.99,000.00,029.4,027.7,000.0,038.0,030.8,28.5,0000.0,0007.10,0012.44,0006.50
2023-07-10 09:12:00,SystemResetWarning,0830.9,5.00,000.00,029.4,027.8,000.0,038.0,030.9,28.4,0000.0,0007.10,0012.19,0006.48
2023-07-10 09:13:00,SystemResetWarning,0830.9,5.02,000.00,029.4,027.9,000.0,038.0,030.9,28.1,0000.0,0007.03,0011.87,0006.46
2023-07-10 09:14:00,SystemResetWarning,0830.9,5.00,000.00,029.4,028.0,000.0,038.0,031.0,27.7,0000.0,0006.99,0011.72,0006.44
2023-07-10 09:15:00,SystemResetWarning,0830.9,5.00,000.00,029.4,028.1,000.0,038.0,031.0,27.8,0000.0,0006.97,0011.67,0006.41
2023-07-10 09:16:00,SystemResetWarning,0830.9,4.99,000.00,029.5,028.1,000.0,038.0,031.0,27.7,0000.0,0006.93,0011.61,0006.39
2023-07-10 09:17:00,SystemResetWarning,0830.9,5.00,000.00,029.5,028.2,000.0,038.0,031.1,27.4,0000.0,0006.97,0011.76,0006.37
2023-07-10 09:18:00,SystemResetWarning,0830.9,5.02,000.00,029.5,028.2,000.0,038.0,031.1,27.5,0000.0,0007.02,0012.21,0006.35
2023-07-10 09:19:00,SystemResetWarning,0830.9,5.01,000.00,029.5,028.3,000.0,038.0,031.1,27.6,0000.0,0007.01,0012.22,0006.33
2023-07-10 09:20:00,SystemResetWarning,0830.9,4.99,000.00,029.6,028.3,000.0,038.1,031.1,27.8,0000.0,0006.99,0011.72,0006.30
2023-07-10 09:21:00,SystemResetWarning,0830.9,5.00,000.00,029.6,028.3,000.0,038.1,031.1,28.2,0000.0,0006.94,0011.22,0006.26
2023-07-10 09:22:00,SystemResetWarning,0830.9,4.99,000.00,029.6,028.3,000.0,038.1,031.2,27.8,0000.0,0006.91,0010.82,0006.23
2023-07-10 09:23:00,SystemResetWarning,0830.9,5.01,000.00,029.6,028.4,000.0,038.1,031.2,27.4,0000.0,0006.88,0010.73,0006.21
2023-07-10 09:24:00,SystemResetWarning,0830.9,5.01,000.00,029.6,028.4,000.0,038.1,031.2,27.1,0000.0,0006.90,0010.73,0006.19
2023-07-10 09:25:00,SystemResetWarning,0830.9,4.99,000.00,029.7,028.4,000.0,038.1,031.2,27.0,0000.0,0006.89,0011.08,0006.16
2023-07-10 09:26:00,SystemResetWarning,0830.9,4.99,000.00,029.7,028.4,000.0,038.2,031.2,27.0,0000.0,0006.87,0011.07,0006.15
2023-07-10 09:27:00,SystemResetWarning,0830.9,5.00,000.00,029.7,028.5,000.0,038.2,031.3,26.9,0000.0,0006.83,0010.96,0006.13
2023-07-10 09:28:00,SystemResetWarning,0830.9,5.02,000.00,029.7,028.5,000.0,038.2,031.3,27.0,0000.0,0006.75,0010.77,0006.11
2023-07-10 09:29:00,SystemResetWarning,0830.9,4.99,000.00,029.7,028.5,000.0,038.2,031.3,26.7,0000.0,0006.71,0010.37,0006.10
2023-07-10 09:30:00,SystemResetWarning,0830.9,4.99,000.00,029.8,028.5,000.0,038.2,031.3,26.6,0000.0,0006.69,0010.50,0006.08
2023-07-10 09:31:00,SystemResetWarning,0830.9,4.99,000.00,029.8,028.6,000.0,038.3,031.3,26.7,0000.0,0006.65,0010.66,0006.06
2023-07-10 09:32:00,SystemResetWarning,0830.9,5.00,000.00,029.8,028.6,000.0,038.3,031.4,26.3,0000.0,0006.63,0011.22,0006.05
2023-07-10 09:33:00,SystemResetWarning,0830.9,5.02,000.00,029.8,028.6,000.0,038.3,031.4,26.2,0000.0,0006.67,0011.65,0006.05
2023-07-10 09:34:00,SystemResetWarning,0830.9,4.99,000.00,029.8,028.6,000.0,038.3,031.4,26.4,0000.0,0006.67,0011.68,0006.04
2023-07-10 09:35:00,SystemResetWarning,0830.8,4.99,000.00,029.8,028.6,000.0,038.3,031.4,26.6,0000.0,0006.67,0011.66,0006.02
2023-07-10 09:36:00,SystemResetWarning,0830.8,5.01,000.00,029.9,028.5,000.0,038.3,031.4,26.6,0000.0,0006.64,0011.87,0006.00
2023-07-10 09:37:00,SystemResetWarning,0830.8,5.00,000.00,029.8,026.9,000.0,038.2,031.3,26.5,0000.0,0006.60,0011.99,0005.98
2023-07-10 09:38:00,SystemResetWarning,0830.7,5.00,000.00,029.8,025.4,000.0,038.1,031.1,26.6,0000.0,0006.62,0012.49,0005.96
2023-07-10 09:39:00,SystemResetWarning,0830.7,5.01,000.00,029.7,025.1,000.0,038.1,030.7,26.8,0000.0,0006.62,0012.66,0005.94
2023-07-10 09:40:00,SystemResetWarning,0830.7,5.00,000.00,029.5,025.4,000.0,038.1,030.6,27.1,0000.0,0006.57,0012.54,0005.92
2023-07-10 09:41:00,SystemResetWarning,0830.7,4.99,000.00,029.4,025.8,000.0,038.1,030.6,27.4,0000.0,0006.53,0012.30,0005.91
2023-07-10 09:42:00,SystemResetWarning,0830.7,5.00,000.00,029.4,026.2,000.0,038.1,030.7,27.7,0000.0,0006.56,0012.38,0005.92
2023-07-10 09:43:00,SystemResetWarning,0830.7,5.00,000.00,029.4,026.6,000.0,038.1,030.7,27.7,0000.0,0006.56,0011.81,0005.92
2023-07-10 09:44:00,SystemResetWarning,0830.7,5.00,000.00,029.4,026.9,000.0,038.1,030.8,28.3,0000.0,0006.51,0011.79,0005.92
2023-07-10 09:45:00,SystemResetWarning,0830.6,5.01,000.00,029.4,027.2,000.0,038.0,030.8,28.3,0000.0,0006.52,0011.91,0005.92
2023-07-10 09:46:00,SystemResetWarning,0830.7,5.00,000.00,029.4,027.4,000.0,038.0,030.8,28.2,0000.0,0006.49,0011.85,0005.93
2023-07-10 09:47:00,SystemResetWarning,0830.6,4.98,000.00,029.4,027.5,000.0,038.0,030.9,27.5,0000.0,0006.50,0012.04,0005.93
2023-07-10 09:48:00,SystemResetWarning,0830.7,5.00,000.00,029.4,027.7,000.0,038.0,030.9,26.8,0000.0,0006.53,0012.05,0005.94
2023-07-10 09:49:00,SystemResetWarning,0830.7,5.02,000.00,029.4,027.8,000.0,038.0,030.9,26.5,0000.0,0006.53,0011.59,0005.94
2023-07-10 09:50:00,SystemResetWarning,0830.7,5.00,000.00,029.4,027.9,000.0,038.0,031.0,27.8,0000.0,0006.56,0011.45,0005.96
2023-07-10 09:51:00,SystemResetWarning,0830.6,4.99,000.00,029.5,028.0,000.0,038.0,031.0,27.8,0000.0,0006.58,0011.50,0005.97
2023-07-10 09:52:00,SystemResetWarning,0830.7,5.00,000.00,029.5,028.0,000.0,038.0,031.0,27.7,0000.0,0006.61,0011.51,0005.99
2023-07-10 09:53:00,SystemResetWarning,0830.7,5.00,000.00,029.5,028.1,000.0,038.0,031.0,28.1,-000.2,0006.60,0011.45,0005.99
2023-07-10 09:54:00,SystemResetWarning,0830.6,5.00,000.00,029.5,028.1,000.0,038.1,031.1,28.5,-000.1,0006.59,0011.48,0005.98
2023-07-10 09:55:00,SystemResetWarning,0830.6,5.01,000.00,029.5,028.2,000.0,038.1,031.1,28.7,-000.2,0006.60,0011.30,0005.97
2023-07-10 09:56:00,SystemResetWarning,0830.6,5.01,000.00,029.6,028.2,000.0,038.1,031.1,28.6,-000.4,0006.59,0011.21,0005.97
2023-07-10 09:57:00,SystemResetWarning,0830.7,5.01,000.00,029.6,028.2,000.0,038.1,031.1,28.6,-000.9,0006.59,0011.52,0005.97
2023-07-10 09:58:00,SystemResetWarning,0830.7,4.99,000.00,029.6,028.3,000.0,038.1,031.1,28.4,-001.5,0006.55,0011.02,0005.97
2023-07-10 09:59:00,SystemResetWarning,0830.6,4.99,000.00,029.6,028.3,000.0,038.1,031.1,28.5,-001.9,0006.57,0010.74,0005.96
